Bowser, British Columbia

7:34 PM PDT on May 23, 2018 (GMT -0700)
Bowser

Weather History for 71781 - January, 2013

Change the Weather History Date:

Thursday, January 3, 2013

  Actual Average Record
Temperature  
Mean Temperature 38 °F -  
Max Temperature 40 °F - - ()
Min Temperature 37 °F - - ()
Degree Days  
Heating Degree Days 26    
Moisture  
Dew Point 34 °F    
Average Humidity 83    
Maximum Humidity 89    
Minimum Humidity 72    
Precipitation  
Precipitation 0.00 in - - ()
Sea Level Pressure  
Sea Level Pressure 30.12 in    
Wind  
Wind Speed 7 mph ()    
Max Wind Speed 25 mph    
Max Gust Speed -    
T = Trace of Precipitation, MM = Missing Value Source: Averaged Metar Reports

Daily Weather History Graph

Daily Weather History Graph

Search for Another Location

Airport or City:

Astronomy

Jan. 03, 2013 Rise Set
Actual Time 8:13 AM PST 4:31 PM PST
Civil Twilight 7:36 AM PST 5:09 PM PST
Nautical Twilight 6:55 AM PST 5:49 PM PST
Astronomical Twilight 6:16 AM PST 6:28 PM PST
Moon 11:54 PM PST (1/3) 10:50 AM PST (1/3)
Length of Visible Light 9h 32m
Length of Day
8h 17m
Waning Gibbous, 64% of the Moon is Illuminated
Jan 3
Waning Gibbous
Jan 4
Last Quarter
Jan 11
New
Jan 18
First Quarter
Jan 26
Full

Hourly Weather History & Observations

Time (PST) Temp. Windchill Dew Point Humidity Pressure Visibility Wind Dir Wind Speed Gust Speed Precip Events Conditions
12:00 AM 39.0 °F - 34.9 °F 85% 30.22 in - SSW 2.3 mph - N/A   Unknown
1:00 AM 39.2 °F - 35.4 °F 86% 30.20 in - ESE 2.3 mph - N/A   Unknown
2:00 AM 39.0 °F - 35.8 °F 88% 30.21 in - SE 2.3 mph - N/A   Unknown
3:00 AM 38.8 °F 36.5 °F 35.8 °F 89% 30.19 in - ESE 3.5 mph - N/A   Unknown
4:00 AM 39 °F - 35 °F 78% 30.17 in - SSE 3.5 mph - -  
4:00 AM 38.8 °F 36.5 °F 34.5 °F 84% 30.17 in - SSE 3.5 mph - N/A   Unknown
5:00 AM 38.3 °F 34.8 °F 33.6 °F 83% 30.14 in - SSE 4.6 mph - N/A   Unknown
6:00 AM 38.3 °F 35.9 °F 33.4 °F 83% 30.13 in - SSE 3.5 mph - N/A   Unknown
7:00 AM 37.9 °F 35.5 °F 34.3 °F 87% 30.12 in - East 3.5 mph - N/A   Unknown
8:00 AM 37.8 °F 33.3 °F 34.0 °F 86% 30.12 in - East 5.8 mph - N/A   Unknown
9:00 AM 37.6 °F 33.1 °F 33.8 °F 86% 30.12 in - East 5.8 mph - N/A   Unknown
10:00 AM 38 °F - 34 °F 81% 30.12 in - East 5.8 mph - -  
10:00 AM 37.8 °F 33.3 °F 34.3 °F 87% 30.12 in - East 5.8 mph - N/A   Unknown
11:00 AM 37.8 °F 34.2 °F 33.8 °F 86% 30.12 in - South 4.6 mph - N/A   Unknown
12:00 PM 37.0 °F 32.4 °F 33.1 °F 86% 30.12 in - SW 5.8 mph - N/A   Unknown
1:00 PM 38.3 °F 31.4 °F 34.0 °F 84% 30.09 in - ESE 10.4 mph - N/A   Unknown
2:00 PM 38.8 °F 30.8 °F 35.1 °F 86% 30.08 in - SE 13.8 mph - N/A   Unknown
3:00 PM 38.3 °F 30.1 °F 34.7 °F 87% 30.08 in - ESE 13.8 mph - N/A   Unknown
4:00 PM 38 °F - 35 °F 82% 30.08 in - SE 13.8 mph - -  
4:00 PM 38.1 °F 29.8 °F 34.5 °F 87% 30.08 in - SE 13.8 mph - N/A   Unknown
5:00 PM 38.7 °F 31.8 °F 34.2 °F 84% 30.08 in - SE 10.4 mph - N/A   Unknown
6:00 PM 39.7 °F 30.6 °F 33.1 °F 77% 30.07 in - SE 18.4 mph - N/A   Unknown
7:00 PM 39.0 °F 28.8 °F 32.0 °F 76% 30.07 in - SE 21.9 mph - N/A   Unknown
8:00 PM 38.1 °F 26.8 °F 33.4 °F 83% 30.07 in - ESE 25.3 mph - N/A   Unknown
9:00 PM 39.4 °F 31.1 °F 31.5 °F 73% 30.07 in - SE 15.0 mph - N/A   Unknown
10:00 PM 40 °F - 34 °F 72% 30.09 in - ESE 18.4 mph - -  
10:00 PM 40.5 °F 31.5 °F 34.0 °F 78% 30.09 in - ESE 18.4 mph - N/A   Unknown
11:00 PM 39.0 °F 29.0 °F 35.2 °F 86% 30.10 in - SE 20.7 mph - N/A   Unknown